{"data":{"norad_id":28885,"epoch":"2026-05-25T00:32:30.524064Z","epoch_age_seconds":73378,"freshness":"FRESH","line1":"1 28885U 05041B   26145.02257551  .00000128  00000+0  00000+0 0  9995","line2":"2 28885   4.5849  76.1161 0003244 340.5803 240.3851  1.00279911 75512","mean_motion":1.00279911,"eccentricity":0.0003244,"inclination_deg":4.5849,"raan_deg":76.1161,"arg_perigee_deg":340.5803,"mean_anomaly_deg":240.3851,"bstar":0,"rev_number":7551,"period_min":1435.9805325316,"perigee_km":35770.639602128,"apogee_km":35797.994602349,"semimajor_km":42162.454102239,"source":"CELESTRAK","updated_at":"2026-05-25T13:38:13.850348Z"}}